Wetbulb
57.99 58.50 59.68 59.45 60.07 59.55 59.14 58.93 59.27 59.62 59.87 58.77 59.77 59.62 58.78 58.08 57.92 57.26 57.32 55.93 55.18 55.69 56.10 55.54 55.87 56.46 55.94 56.56 57.30 56.80 56.85 56.62 53.35 55.63 56.70 59.04 59.38 61.07 61.02 61.62 60.79 61.20 61.46
57.73 57.95 58.73 59.14 60.12 60.14 59.25 58.96 59.29 59.01 59.35 59.61 59.55 59.18 58.49 57.85 57.96 57.66 57.05 57.00 55.87 54.45 55.30 56.11 55.84 56.32 56.18 56.53 56.07 55.26 55.00 55.38 53.49 52.01 55.49 55.41 56.87 59.17 61.59 62.21 61.39 61.56 62.22
57.19 57.53 57.42 57.08 57.12 57.65 59.19 60.17 59.94 59.35 58.52 58.41 58.70 58.33 58.35 58.38 58.50 58.69 59.08 59.04 59.08 58.39 57.55 56.00 55.82 55.61 55.19 55.54 55.81 55.29 55.90 55.80 55.24 53.67 54.55 58.92 60.18 61.02 60.80 61.85 62.14 63.03 62.30
55.69 53.84 53.15 55.09 56.67 57.12 57.71 58.61 59.15 59.63 59.16 58.34 58.12 58.10 58.59 58.86 58.85 59.59 59.99 60.19 59.16 59.04 59.82 59.47 59.36 59.38 59.18 59.25 59.29 58.86 58.38 57.87 58.47 57.55 58.00 58.09 59.19 60.42 60.73 59.59 59.62 61.96 61.72
45.71 45.74 45.62 46.52 48.25 49.23 50.41 50.83 54.76 57.41 58.06 59.63 59.37 59.42 59.25 51.98 40.95 43.95 57.02 58.53 58.17 58.51 59.31 59.15 59.66 57.70 51.75 54.74 60.05 60.19 59.41 58.69 59.20 58.09 56.30 57.73 58.29 58.43 58.26 59.99 59.11 60.13 61.64
40.72 40.94 42.81 43.90 43.44 44.07 45.05 45.99 47.42 48.22 48.72 47.55 46.09 44.58 42.12 38.93 35.69 36.42 39.44 52.08 55.24 56.40 56.41 57.22 57.91 52.19 51.52 45.35 45.72 46.04 51.68 56.54 56.28 55.77 55.83 54.54 55.22 57.02 58.60 57.78 57.15 55.85 54.57
39.24 39.75 41.45 42.34 41.54 42.01 43.46 43.57 44.74 44.42 42.81 40.77 40.77 40.34 36.08 34.51 34.26 34.86 34.85 40.76 46.20 49.76 51.25 50.06 52.17 54.10 48.69 52.14 48.08 43.08 43.51 42.12 42.97 51.62 53.10 53.85 53.70 53.89 50.00 53.39 54.00 53.76 53.46
38.89 38.28 38.83 39.39 40.92 42.95 43.40 43.11 42.76 40.53 38.45 36.77 36.50 36.52 34.96 33.13 33.23 33.58 34.05 42.36 45.82 38.85 34.92 34.95 36.79 38.50 36.76 36.48 41.11 45.73 50.49 37.14 35.27 39.51 36.52 32.37 30.48 31.06 32.87 38.29 39.69 40.04 37.08
33.76 34.61 36.36 38.11 38.11 40.05 39.90 39.72 40.55 39.21 37.04 35.62 34.99 34.81 35.28 32.91 32.40 33.21 39.39 45.45 38.04 34.46 32.80 32.16 32.79 33.03 32.47 33.72 39.27 41.38 36.88 30.23 31.64 31.17 30.00 29.12 28.67 28.93 28.48 34.64 34.59 35.34 36.45
33.61 34.14 35.46 35.49 36.75 36.66 37.42 37.26 37.67 37.22 35.71 35.50 34.70 35.47 33.10 34.40 30.94 31.86 36.46 36.34 32.67 31.20 29.79 29.84 29.72 30.18 30.41 31.18 34.34 36.69 28.80 26.81 26.72 25.81 25.55 25.38 25.27 25.18 25.90 24.84 24.64 29.83 31.49
32.84 32.35 32.61 34.74 34.89 34.91 35.74 36.45 36.09 35.21 35.02 34.82 33.85 33.40 32.96 30.69 30.74 30.24 31.29 33.34 30.14 28.38 27.68 27.63 28.98 28.88 29.08 29.20 29.09 27.99 25.97 25.70 24.37 23.73 23.29 23.98 24.13 23.69 23.81 25.27 25.13 23.81 23.68
32.48 31.93 31.17 32.02 33.38 33.83 34.02 33.97 34.48 34.05 33.14 33.17 32.96 31.59 31.25 30.64 28.78 28.67 28.72 29.39 31.23 30.36 29.11 28.90 28.55 27.79 27.91 27.97 28.70 26.95 26.23 26.28 25.51 24.36 23.76 23.21 23.33 25.64 26.61 25.89 25.86 25.67 25.71
30.52 30.46 30.99 31.23 30.65 31.97 32.42 33.08 33.25 33.67 33.23 32.39 31.58 30.69 30.04 30.98 31.31 28.75 27.73 27.42 27.33 28.64 28.05 27.21 26.53 27.26 27.66 27.26 26.67 27.74 29.19 30.50 30.00 28.36 26.75 25.89 26.47 26.84 28.50 29.30 28.59 27.87 26.03
30.06 29.34 29.20 29.33 29.82 30.21 30.56 30.51 30.26 30.38 30.14 29.77 29.55 29.10 29.13 28.69 28.82 30.40 30.08 30.66 28.71 29.03 28.63 28.90 27.76 27.57 27.06 26.97 27.28 27.63 27.31 26.85 26.51 26.25 26.06 26.59 27.27 26.68 26.31 27.05 26.12 26.78 25.14
29.78 29.55 29.27 28.58 27.65 26.11 26.51 27.37 26.41 27.38 28.31 27.78 27.44 27.34 27.36 25.60 25.66 26.03 26.40 28.02 28.31 27.49 28.84 29.19 28.12 27.59 26.83 26.29 25.72 24.62 24.76 25.66 24.96 25.26 25.08 25.00 24.67 24.61 23.92 25.15 24.57 24.53 22.65
28.94 28.83 28.82 29.40 29.21 28.42 25.93 23.38 24.43 24.89 25.24 25.51 25.67 26.90 26.05 24.83 24.42 24.33 23.82 23.61 24.22 26.05 27.55 25.94 24.83 24.65 23.74 23.35 22.94 22.68 22.66 21.45 22.48 23.35 23.39 22.93 21.98 21.58 22.20 22.94 23.58 22.43 21.27
28.42 28.55 28.51 28.46 28.54 27.80 27.83 27.53 23.38 21.82 21.53 21.82 23.23 23.16 23.15 22.67 22.44 22.19 22.43 22.50 22.99 25.91 25.19 23.80 22.98 22.65 22.03 21.62 21.35 20.90 20.06 19.95 21.00 21.25 21.14 20.78 21.45 21.21 20.85 20.36 20.58 20.73 20.10
26.02 24.89 27.46 27.20 27.20 26.64 26.06 25.33 25.17 24.62 23.56 22.14 19.07 19.05 19.63 19.83 20.04 20.85 21.24 23.96 23.41 22.51 22.44 21.46 20.94 20.94 20.45 19.80 19.59 19.16 19.24 19.53 19.11 19.17 18.91 18.97 19.37 19.43 18.97 18.77 18.14 17.25 18.43
26.53 25.82 25.89 25.18 24.17 24.30 24.54 23.83 23.25 22.34 21.84 21.59 22.15 20.68 18.76 18.56 18.74 19.18 20.20 21.43 20.54 19.75 19.85 19.33 19.76 19.52 19.10 19.00 18.68 18.21 17.11 16.58 16.53 17.12 17.32 16.90 17.42 18.02 16.69 16.91 17.86 14.13 15.29
23.86 21.85 24.00 25.16 24.85 23.98 23.29 22.21 21.31 20.65 19.91 19.02 17.64 17.40 20.51 20.56 19.39 18.60 18.81 18.96 18.56 18.34 18.48 17.81 17.86 17.80 17.50 17.54 17.27 16.54 17.09 16.00 15.66 15.87 15.70 15.70 16.16 16.68 15.88 15.28 15.53 15.94 15.78
25.00 23.30 21.53 24.00 23.06 22.56 21.84 20.82 20.24 19.68 18.34 17.51 15.03 12.92 12.14 17.59 16.52 16.27 16.26 16.20 16.04 16.11 16.33 16.62 16.57 16.00 16.25 15.73 15.61 14.91 13.47 14.36 12.98 13.12 13.69 13.93 13.63 13.98 14.75 15.56 15.35 15.20 14.82
24.06 23.25 22.53 21.58 21.60 20.83 20.12 19.84 19.34 18.26 17.50 16.84 16.35 13.25 12.47 16.54 15.85 15.00 14.65 14.16 14.58 15.04 15.58 15.28 14.88 13.95 12.97 13.05 13.15 13.50 11.87 11.08 11.19 11.46 11.88 11.52 12.54 14.13 13.81 14.19 13.60 13.84 13.96
22.16 21.44 20.66 19.99 19.36 17.41 19.02 18.58 18.29 17.81 16.76 16.35 15.95 14.85 14.61 14.52 13.78 13.82 12.91 13.14 13.44 13.00 12.52 13.83 12.97 11.74 12.00 11.73 12.16 11.59 9.87 9.08 9.23 8.44 7.60 9.83 11.37 11.52 12.72 12.83 12.03 11.51 11.22
20.62 20.29 18.96 18.66 18.68 18.52 18.40 17.39 15.29 12.26 15.02 15.79 15.81 14.71 13.59 13.18 12.86 11.15 11.29 11.68 11.49 12.20 11.52 10.91 9.99 7.66 8.07 9.45 11.33 11.42 9.33 7.21 7.61 8.32 5.41 6.99 9.06 9.99 10.72 10.48 11.21 10.02 10.10
18.83 18.43 17.94 17.64 16.97 16.72 16.89 15.84 15.52 15.48 15.44 15.57 15.40 15.00 13.91 13.39 12.01 11.63 11.02 10.24 8.15 9.91 7.39 8.05 8.65 8.14 6.86 4.72 4.30 5.14 3.07 1.83 3.07 0.79 7.08 7.74 7.07 5.57 6.91 8.53 7.62 9.87 9.18
16.00 15.68 16.28 16.74 16.10 16.13 15.89 15.52 14.99 14.30 13.19 13.63 13.48 12.99 11.84 11.27 10.78 10.08 9.64 7.82 7.52 7.77 6.06 8.94 8.01 5.66 5.11 8.09 3.83 4.53 1.53 0.99 1.98 0.05 2.66 7.75 6.81 7.62 7.80 7.76 7.07 8.10 9.19
MSLP
1005.83 1006.29 1006.33 1006.74 1007.42 1008.16 1008.53 1008.96 1009.23 1009.57 1009.92 1010.28 1010.57 1011.20 1011.74 1012.22 1012.70 1013.19 1013.62 1014.18 1014.61 1015.07 1015.48 1015.68 1015.76 1016.22 1016.44 1016.60 1016.69 1016.91 1017.06 1017.33 1017.14 1016.73 1016.78 1016.36 1016.39 1016.12 1015.80 1015.95 1016.07 1016.09 1015.75
1006.01 1006.47 1006.67 1007.00 1007.24 1007.80 1008.34 1008.90 1009.35 1009.59 1009.92 1010.17 1010.50 1010.92 1011.44 1012.03 1012.44 1012.77 1013.28 1013.67 1014.05 1014.48 1014.71 1015.13 1015.10 1015.56 1015.84 1016.18 1016.25 1016.43 1016.61 1016.74 1016.94 1016.24 1016.21 1015.86 1015.72 1015.31 1015.06 1014.80 1014.71 1014.49 1014.37
1006.51 1006.88 1007.25 1007.67 1007.94 1008.19 1008.31 1008.44 1008.86 1009.31 1009.86 1010.22 1010.46 1010.80 1011.22 1011.70 1012.07 1012.34 1012.62 1012.95 1013.30 1013.65 1013.91 1014.20 1014.33 1014.72 1014.89 1015.03 1015.28 1015.41 1015.64 1015.72 1015.82 1015.71 1014.93 1014.46 1013.89 1013.97 1013.71 1013.39 1013.11 1012.96 1012.95
1007.17 1007.59 1008.02 1008.16 1008.34 1008.45 1008.76 1008.89 1008.98 1009.17 1009.41 1009.91 1010.30 1010.66 1011.08 1011.43 1011.66 1011.80 1011.83 1012.00 1012.46 1012.79 1012.93 1013.29 1013.37 1013.51 1013.64 1013.77 1013.94 1014.04 1014.19 1014.28 1014.20 1014.05 1013.35 1012.92 1012.87 1012.59 1012.50 1012.10 1011.62 1011.68 1011.40
1008.61 1008.85 1009.24 1009.38 1009.42 1009.51 1009.61 1009.72 1009.62 1009.59 1009.64 1009.58 1009.93 1010.39 1010.87 1011.90 1013.23 1012.79 1011.79 1012.01 1012.27 1012.23 1012.33 1012.40 1012.40 1012.56 1012.73 1012.89 1012.87 1012.72 1012.93 1012.99 1012.84 1012.65 1012.56 1012.17 1011.84 1011.68 1011.36 1011.24 1010.82 1010.51 1009.96
1009.91 1010.05 1010.24 1010.22 1010.38 1010.67 1010.77 1010.82 1010.82 1010.95 1011.14 1011.30 1011.66 1012.07 1012.69 1013.83 1014.23 1013.85 1013.52 1012.73 1012.39 1012.16 1012.15 1012.04 1012.07 1012.14 1012.18 1012.23 1012.31 1012.38 1012.50 1012.55 1012.31 1012.23 1012.03 1011.81 1011.53 1011.05 1010.83 1010.57 1010.20 1010.13 1009.31
1010.89 1011.20 1011.46 1011.08 1010.97 1011.52 1011.72 1011.76 1011.83 1012.19 1012.57 1012.91 1013.26 1013.63 1014.35 1014.88 1014.83 1014.37 1013.97 1013.45 1013.07 1012.86 1012.81 1012.85 1012.57 1012.44 1012.53 1012.37 1011.95 1012.10 1012.15 1012.10 1012.06 1012.39 1011.86 1011.64 1011.57 1011.64 1011.63 1010.83 1010.49 1010.29 1009.93
1011.95 1012.39 1012.80 1012.01 1011.47 1012.20 1012.45 1012.60 1012.72 1013.27 1013.78 1014.30 1014.64 1014.87 1015.22 1015.78 1015.58 1014.89 1014.09 1013.60 1013.47 1014.24 1014.68 1014.67 1014.47 1014.19 1014.21 1013.88 1013.20 1012.71 1012.31 1013.20 1013.19 1012.95 1013.39 1013.98 1014.29 1013.84 1013.41 1012.60 1012.18 1011.83 1011.91
1013.84 1013.98 1013.25 1011.95 1012.87 1013.83 1013.87 1013.91 1013.87 1014.02 1014.59 1015.12 1015.60 1015.84 1015.84 1016.21 1015.93 1015.11 1013.83 1013.59 1014.63 1015.34 1015.82 1015.93 1015.63 1015.39 1015.16 1014.22 1013.44 1013.30 1013.60 1014.63 1015.01 1015.01 1015.18 1015.40 1015.32 1014.88 1014.16 1012.95 1012.72 1012.60 1012.14
1013.71 1014.10 1013.50 1014.62 1014.41 1014.66 1015.24 1015.11 1015.25 1015.23 1015.47 1015.87 1016.35 1016.66 1016.98 1016.81 1016.59 1015.96 1015.12 1015.26 1015.55 1016.11 1016.74 1016.88 1016.75 1016.32 1015.74 1014.78 1014.11 1013.97 1015.01 1015.90 1015.94 1016.00 1016.07 1016.01 1015.95 1015.88 1015.57 1015.31 1014.81 1013.94 1013.76
1015.44 1016.14 1015.85 1015.78 1015.42 1015.87 1016.10 1016.26 1016.28 1016.05 1016.08 1016.42 1016.94 1017.58 1017.67 1017.97 1017.68 1017.30 1016.59 1016.24 1016.88 1017.16 1017.40 1017.58 1017.67 1017.37 1016.91 1016.17 1015.63 1015.66 1016.33 1016.93 1017.15 1017.09 1017.18 1017.12 1017.02 1016.80 1016.74 1016.46 1016.26 1015.61 1015.44
1017.12 1017.42 1017.21 1016.71 1016.83 1016.77 1017.04 1017.53 1017.21 1016.68 1016.80 1017.12 1017.60 1018.07 1018.39 1018.61 1018.64 1018.39 1018.11 1017.80 1017.70 1017.82 1018.15 1018.50 1018.77 1018.60 1018.13 1017.66 1017.30 1017.42 1017.36 1017.36 1017.42 1017.33 1017.43 1017.60 1017.69 1017.52 1017.52 1017.56 1017.41 1016.89 1017.38
1017.73 1017.91 1017.73 1018.11 1018.09 1018.15 1018.12 1018.26 1017.62 1017.57 1017.42 1017.84 1018.29 1018.66 1018.84 1019.01 1019.26 1019.48 1019.44 1019.15 1019.03 1019.01 1019.42 1019.61 1019.61 1019.30 1019.09 1018.97 1018.78 1018.42 1018.06 1017.94 1017.83 1017.86 1018.04 1018.21 1018.22 1018.30 1017.94 1017.65 1017.54 1017.40 1017.51
1018.72 1018.91 1019.22 1019.24 1019.46 1019.68 1019.61 1019.32 1019.03 1018.85 1018.95 1019.12 1019.18 1019.32 1019.84 1020.20 1020.18 1019.98 1019.83 1019.80 1019.95 1019.74 1019.98 1020.08 1020.01 1019.82 1019.93 1019.81 1019.57 1019.46 1019.36 1019.40 1019.16 1018.89 1018.87 1019.01 1018.93 1018.67 1018.38 1018.01 1017.58 1017.32 1017.20
1019.66 1019.96 1020.18 1020.36 1020.66 1021.09 1021.27 1021.23 1021.17 1021.18 1020.63 1020.50 1020.82 1020.84 1021.04 1021.19 1021.49 1021.46 1021.03 1020.89 1020.83 1020.88 1020.78 1020.67 1020.28 1020.27 1020.28 1020.37 1020.36 1020.47 1020.69 1020.41 1020.01 1019.83 1019.60 1019.36 1019.30 1019.18 1019.15 1019.01 1018.51 1018.25 1018.07
1020.24 1020.49 1020.86 1020.86 1021.10 1021.41 1022.04 1022.75 1023.16 1023.09 1022.92 1022.45 1022.16 1021.84 1022.11 1022.41 1022.43 1022.22 1022.01 1022.00 1021.89 1021.46 1021.27 1021.22 1021.39 1021.20 1021.11 1021.31 1021.34 1021.34 1021.42 1021.31 1021.09 1020.84 1020.59 1020.39 1020.37 1020.24 1019.84 1019.75 1019.48 1019.26 1019.07
1021.43 1021.36 1021.52 1021.58 1021.73 1022.00 1022.06 1022.25 1023.13 1024.27 1024.49 1024.14 1023.51 1023.24 1023.12 1023.19 1023.06 1022.97 1022.80 1022.74 1022.55 1022.11 1021.92 1021.95 1022.07 1022.25 1022.38 1022.48 1022.34 1022.36 1022.33 1022.46 1022.30 1021.95 1021.76 1021.62 1021.33 1021.00 1020.76 1020.82 1020.33 1020.10 1019.54
1022.52 1022.47 1022.24 1022.42 1022.46 1022.66 1022.85 1023.17 1023.41 1023.61 1023.78 1024.32 1024.96 1024.53 1024.12 1023.90 1023.77 1023.48 1023.17 1022.86 1022.92 1022.90 1022.88 1023.04 1023.21 1023.39 1023.39 1023.33 1023.43 1023.25 1023.33 1023.44 1023.34 1023.11 1022.88 1022.77 1022.42 1022.01 1021.79 1021.46 1021.36 1021.10 1020.47
1022.99 1023.10 1023.25 1023.43 1023.56 1023.55 1023.53 1023.63 1023.78 1024.03 1024.16 1024.32 1024.37 1024.52 1024.89 1024.55 1024.42 1024.42 1024.12 1023.79 1023.83 1023.99 1024.04 1024.27 1024.47 1024.51 1024.48 1024.39 1024.55 1024.55 1024.63 1024.58 1024.49 1024.22 1024.01 1023.67 1023.49 1022.95 1022.72 1022.51 1022.09 1022.09 1021.56
1024.16 1024.30 1023.94 1023.88 1023.93 1023.90 1023.92 1024.03 1024.31 1024.51 1024.70 1025.11 1025.52 1025.60 1025.01 1024.85 1024.79 1025.03 1025.08 1025.08 1025.15 1025.24 1025.38 1025.50 1025.65 1025.67 1025.67 1025.43 1025.42 1025.42 1025.24 1025.40 1025.34 1025.03 1024.87 1024.67 1024.42 1023.93 1023.53 1023.24 1022.98 1022.54 1022.13
1024.41 1024.73 1024.73 1024.48 1024.30 1024.34 1024.34 1024.52 1024.74 1025.23 1025.64 1025.98 1026.67 1027.22 1026.86 1025.80 1025.76 1025.86 1026.02 1026.27 1026.41 1026.54 1026.67 1026.51 1026.53 1026.63 1026.58 1026.63 1026.42 1026.40 1026.46 1026.33 1026.44 1026.18 1025.83 1025.48 1025.29 1024.67 1024.39 1023.99 1023.64 1023.27 1022.90
1025.09 1025.03 1025.08 1025.20 1025.05 1025.19 1025.19 1025.32 1025.56 1025.88 1026.24 1026.65 1026.96 1027.60 1027.41 1026.86 1026.80 1026.95 1027.22 1027.57 1027.74 1027.64 1027.64 1027.56 1027.55 1027.81 1028.02 1027.77 1027.52 1027.24 1027.31 1027.44 1027.35 1027.15 1026.74 1026.38 1025.88 1025.36 1025.04 1024.58 1024.31 1023.83 1023.40
1025.71 1025.72 1025.78 1025.79 1026.03 1026.28 1026.16 1026.29 1026.36 1026.59 1027.06 1027.51 1027.62 1027.80 1027.93 1028.01 1027.99 1027.98 1028.29 1028.51 1028.60 1028.73 1028.88 1028.53 1028.56 1028.67 1028.71 1028.72 1028.56 1028.43 1028.33 1028.42 1028.35 1028.36 1027.99 1027.19 1026.51 1026.14 1025.57 1025.04 1024.73 1024.43 1024.19
1026.62 1026.60 1026.65 1026.81 1026.92 1026.91 1027.02 1027.22 1027.65 1027.98 1027.91 1028.17 1028.34 1028.51 1028.60 1028.71 1028.73 1029.00 1029.18 1029.37 1029.40 1029.22 1029.39 1029.44 1029.46 1029.71 1029.55 1029.33 1029.09 1028.98 1029.27 1029.56 1029.34 1028.77 1028.84 1028.07 1027.18 1026.62 1026.11 1025.64 1025.15 1025.01 1024.67
1027.60 1027.60 1027.56 1027.50 1027.67 1027.75 1027.92 1027.99 1028.22 1028.44 1028.65 1028.72 1028.80 1028.98 1029.13 1029.19 1029.25 1029.32 1029.45 1029.71 1030.01 1029.65 1029.74 1029.96 1029.93 1029.73 1029.61 1030.08 1030.17 1030.13 1030.39 1030.38 1030.04 1029.92 1028.76 1028.08 1027.67 1027.41 1026.88 1026.35 1026.12 1025.35 1025.03
1028.46 1028.43 1028.35 1028.36 1028.41 1028.41 1028.47 1028.65 1028.88 1029.04 1029.09 1029.19 1029.32 1029.50 1029.56 1029.48 1029.59 1029.67 1029.82 1030.07 1030.12 1030.06 1030.24 1029.89 1029.98 1030.26 1030.30 1029.72 1029.92 1030.29 1030.56 1030.37 1030.01 1029.93 1029.49 1028.16 1027.75 1027.27 1026.98 1026.55 1026.25 1025.82 1025.13
Wind_Speed
12 11 11 10 11 9 7 7 6 6 8 9 10 11 10 9 10 10 11 10 10 8 8 10 11 9 7 5 3 4 7 7 9 9 9 12 14 15 14 14 13 15 14
11 10 11 9 8 10 10 9 8 7 7 9 9 10 10 9 9 10 10 10 13 15 12 11 12 8 10 9 6 8 9 10 9 16 13 11 16 17 18 18 14 14 15
10 11 10 8 7 6 7 6 8 9 8 8 8 9 10 11 11 12 13 14 15 15 15 16 15 14 14 12 12 12 13 12 12 13 16 15 14 14 17 17 16 18 15
8 10 9 5 5 6 7 7 6 6 7 10 9 9 8 9 11 12 14 14 13 12 15 16 17 18 19 18 17 18 16 14 15 15 15 15 14 16 16 15 16 14 15
11 12 11 10 10 10 10 10 7 4 3 5 7 8 9 7 10 11 8 11 12 15 14 13 14 16 16 17 13 16 16 15 14 14 14 15 15 14 17 14 16 15 16
12 12 10 11 12 11 10 9 10 10 11 12 12 14 13 10 15 15 11 7 8 10 12 13 14 14 15 17 19 21 19 17 16 14 14 15 18 16 15 14 14 14 17
13 13 11 10 13 10 9 9 10 11 11 12 12 12 13 13 19 18 14 5 5 7 8 10 8 7 10 10 12 18 19 20 20 18 19 16 16 12 10 14 15 15 16
14 13 10 11 15 11 10 10 11 11 12 11 11 11 11 12 19 18 14 3 3 13 14 13 10 11 13 13 10 9 6 11 11 6 7 9 8 9 6 6 5 4 1
12 11 12 16 15 11 11 11 10 11 12 12 11 12 11 14 22 20 10 5 11 13 12 15 13 12 19 18 7 5 7 8 14 22 22 20 20 23 18 4 4 3 4
17 16 16 13 12 12 10 10 10 11 12 10 12 13 16 15 24 22 13 8 10 8 11 13 21 16 20 21 11 7 10 9 9 10 11 14 16 17 23 13 7 5 4
14 12 12 11 13 12 11 9 9 10 11 12 12 12 14 16 18 24 20 10 8 8 8 9 10 20 21 22 21 14 12 9 11 9 9 8 9 11 10 11 12 10 7
12 11 12 13 9 9 11 8 9 10 11 11 11 10 9 12 20 21 22 20 14 11 10 9 10 21 24 22 16 20 18 11 7 7 7 8 7 9 9 8 10 11 10
12 12 13 13 12 11 10 9 9 10 10 10 9 9 9 9 9 15 19 20 19 12 10 14 16 16 18 17 23 19 12 9 8 9 9 8 8 7 7 6 7 7 9
12 13 12 13 12 12 10 10 10 9 9 9 9 9 9 9 9 8 8 7 8 9 9 9 8 10 14 13 12 12 10 9 9 8 7 6 6 6 6 6 6 5 5
10 9 10 10 12 13 13 11 11 14 12 8 8 8 8 9 10 12 11 7 7 6 6 7 8 8 9 9 9 10 9 8 8 8 7 7 7 7 7 7 7 6 5
9 8 6 6 6 7 9 11 21 20 21 21 20 12 9 14 15 17 16 14 12 8 7 7 7 8 9 8 8 8 9 10 9 8 7 7 7 7 7 6 6 6 6
8 7 7 7 6 6 5 5 7 10 19 20 20 19 18 15 13 12 12 16 15 8 8 8 8 8 7 7 7 8 8 8 8 8 8 7 7 6 6 6 6 5 5
9 11 7 6 6 6 6 6 5 5 5 6 14 15 18 18 18 16 8 6 7 10 8 8 8 7 7 7 8 8 8 8 7 8 7 7 7 7 6 6 7 7 6
7 7 7 6 7 6 6 6 6 6 6 6 5 8 9 11 15 17 15 9 8 8 8 8 7 7 7 7 7 6 7 7 7 6 7 7 7 6 6 6 6 5 7
7 8 6 5 4 5 5 5 5 6 6 6 7 7 7 6 8 8 9 9 8 8 7 7 6 7 7 7 6 7 6 6 6 6 6 6 6 6 6 6 6 7 6
4 5 5 4 5 5 5 6 6 5 5 6 7 7 9 6 7 8 7 8 7 7 7 6 6 6 6 6 6 6 6 6 6 6 6 6 5 6 5 5 5 5 5
4 4 5 4 4 5 5 5 5 5 5 5 5 6 7 6 6 6 6 6 6 6 5 6 5 6 6 6 6 6 5 6 6 7 6 5 6 5 5 5 5 5 6
4 4 4 5 5 4 5 5 5 5 5 4 4 4 5 5 5 5 5 5 5 5 5 5 4 4 5 4 5 6 6 6 6 6 7 6 6 6 5 5 5 6 5
4 4 4 4 4 4 4 4 5 5 4 3 3 3 4 3 4 4 3 4 4 4 4 3 4 6 6 5 5 5 6 6 7 6 6 6 6 5 6 5 5 5 6
4 4 4 4 3 3 3 3 3 3 2 2 2 2 2 2 3 3 4 3 3 3 3 3 4 5 4 5 4 6 6 7 7 8 6 6 5 6 5 6 5 6 5
4 4 3 3 3 3 3 2 2 2 3 2 2 2 3 3 3 4 3 2 3 3 4 3 4 5 6 4 2 6 7 8 8 6 7 6 5 5 5 5 6 6 6
Wind_Direction
164 183 175 176 169 174 182 184 197 195 194 193 190 181 178 180 187 187 193 197 204 206 203 204 210 204 206 212 194 223 235 244 254 257 262 266 273 274 257 253 253 257 255
160 165 165 166 168 174 181 185 191 196 197 194 196 187 188 186 187 187 192 193 203 214 218 217 216 204 211 213 201 225 233 239 243 254 252 258 250 249 261 251 251 254 248
149 154 149 148 152 178 198 197 189 188 188 196 197 195 196 199 202 198 204 208 211 214 218 224 224 224 230 231 231 236 238 241 241 245 252 248 249 248 246 249 250 250 250
95 84 71 85 144 169 192 195 208 214 199 189 195 199 202 209 216 215 217 220 214 222 227 224 230 232 239 242 240 237 240 241 236 232 243 248 248 252 254 258 258 252 251
73 72 65 61 56 51 49 40 26 7 319 234 206 198 201 56 27 360 287 229 229 234 234 238 240 242 241 241 244 238 237 240 242 241 242 252 253 251 251 254 256 259 255
61 60 61 65 60 53 50 49 48 50 49 53 49 58 65 53 14 15 4 300 285 260 251 250 250 246 247 239 239 247 256 262 257 252 250 245 251 259 259 260 264 266 266
68 53 45 65 65 54 58 61 62 58 56 56 54 67 61 35 13 3 350 312 296 301 320 350 330 328 336 321 260 244 255 258 252 264 266 260 268 283 309 278 270 265 268
57 58 48 50 55 47 50 54 66 69 67 65 59 64 63 36 13 356 331 308 9 63 46 26 11 0 5 341 312 315 298 41 21 18 34 33 34 3 328 302 324 324 62
62 54 55 53 57 45 50 48 55 71 70 67 61 51 57 43 19 7 353 68 75 65 54 40 33 28 9 353 307 279 104 80 58 67 65 55 42 34 27 337 3 287 271
38 37 46 50 60 60 55 61 66 70 73 71 65 54 37 44 29 27 32 61 67 68 58 45 36 35 31 29 39 35 66 47 53 49 46 42 39 36 36 37 6 345 355
47 49 53 61 60 65 61 63 74 81 79 74 68 55 54 34 41 38 37 62 65 66 60 51 41 41 44 49 59 67 75 72 57 56 50 45 40 40 34 36 37 40 40
59 59 60 57 63 72 71 68 76 79 79 77 77 71 60 58 42 44 48 50 58 66 61 59 55 53 53 54 58 66 68 70 69 69 63 52 38 34 41 41 51 55 48
68 64 65 65 59 56 71 72 71 69 73 68 66 63 56 47 63 64 60 61 61 68 69 72 64 58 56 56 51 50 46 52 57 57 53 48 43 39 28 36 63 64 65
81 75 66 60 64 62 59 50 54 59 61 62 59 58 54 46 34 27 38 47 58 66 74 64 70 68 62 54 46 45 45 43 43 47 48 42 37 30 33 26 34 23 37
88 85 86 84 80 71 53 50 61 49 47 62 64 54 56 52 42 45 41 43 53 45 67 55 49 44 45 42 47 42 35 35 37 35 33 31 29 27 28 18 22 32 35
90 78 70 81 82 95 94 78 57 59 57 61 56 60 73 63 57 57 55 57 54 44 60 55 51 44 42 38 38 42 37 36 29 29 33 32 28 24 22 23 20 24 21
74 82 88 74 74 76 70 86 113 92 73 51 57 58 58 53 51 54 58 62 43 55 58 54 49 44 44 41 39 37 38 31 22 31 30 28 17 27 18 18 18 11 23
72 57 63 60 64 67 67 69 62 51 59 63 59 48 53 53 48 45 33 56 54 53 51 49 48 43 40 41 36 33 33 27 29 23 28 26 13 20 13 16 20 5 4
55 58 61 64 57 59 63 61 58 56 53 48 49 62 46 53 54 49 48 52 50 50 48 48 40 38 37 39 35 36 32 29 17 18 23 16 12 9 14 6 5 20 332
73 55 53 67 68 66 62 61 60 57 56 50 41 24 18 38 46 46 48 46 47 43 39 42 38 36 28 28 33 18 21 20 14 11 13 16 358 2 3 357 2 346 357
60 67 46 61 58 57 61 61 62 62 63 63 62 35 13 42 49 47 48 44 40 37 29 28 31 27 24 23 21 25 19 13 14 360 4 0 355 350 348 352 345 342 351
51 54 54 55 61 59 65 67 67 68 64 61 65 66 22 44 50 51 50 43 34 30 26 25 30 30 23 13 11 13 22 8 4 356 353 340 337 353 332 343 337 339 342
45 52 57 62 70 90 74 68 72 71 68 59 53 49 42 44 42 46 50 30 29 25 20 17 33 20 24 22 13 12 7 4 353 354 332 329 328 345 329 333 339 332 347
44 62 68 67 52 72 75 81 90 58 42 50 50 52 45 42 40 48 23 17 360 17 21 34 31 19 7 351 1 7 19 1 338 332 332 325 316 333 324 328 326 340 321
50 59 55 58 58 74 99 62 55 44 39 20 28 19 24 12 15 1 11 4 357 344 18 329 344 343 345 333 336 337 5 339 326 323 301 300 319 303 320 308 335 312 332
46 47 53 59 67 53 48 44 31 7 350 355 342 329 337 348 344 338 353 332 330 315 312 315 317 315 315 277 314 344 322 322 319 320 305 301 310 311 318 309 320 306 319